Location: Haliburton Scout Reserve
(45.0900°N, 78.3200°W)
Time: 17:12:39
(UTC-04:00)

JY1SAT - Pass Details

Date: 30 June 2024
Orbit: 536 x 549 km, 97.5° (Epoch: 11 July)

Event Time Altitude Azimuth Distance (km) Brightness Sun altitude
Exits shadow 22:39:53 - 193° (SSW) 1,913 ? -13.0°
Reaches altitude 10° 22:40:08 10° 195° (SSW) 1,818 ? -13.0°
Maximum altitude 22:43:47 36° 263° (W) 879 ? -13.4°
Drops below altitude 10° 22:47:28 10° 331° (NNW) 1,836 ? -13.8°
Sets 22:49:45 0° 340° (NNW) 2,735 ? -14.0°
